RH
37 37 38 38 35 34 36 40 42 40 38 38 41 43 42 40 39 38 37 34 33 34 29 23 21 19 16 14 13 11 10 9 8 8 8 8 8 8 9 9 8 10 12 12 12 13 13 13 13 11 12 15 16 15 14 14 14 14 15 14 13 13 12 15 17 15 15 15 15 15 19 30 32 31 32 35 38 36 37 41 43 43 44 42 41 42 43 44
40 39 39 39 37 34 34 37 40 40 39 39 41 43 43 42 41 40 38 36 34 34 33 27 22 21 18 15 13 13 11 10 9 9 8 8 8 8 9 9 8 10 11 10 11 13 14 14 13 13 15 16 16 15 15 15 15 14 15 15 13 13 13 16 16 14 16 15 15 16 18 28 33 31 30 35 41 40 41 47 48 47 44 42 43 44 42 43
42 41 40 40 39 36 35 36 38 39 40 40 41 41 43 44 43 41 40 38 36 35 34 30 25 22 19 16 15 13 13 12 10 9 8 8 8 8 9 9 9 9 10 10 10 11 13 15 16 17 17 17 17 17 17 16 15 15 15 15 13 13 14 16 15 15 15 15 17 16 18 29 35 32 32 37 42 43 44 46 48 49 45 43 46 47 46 45
44 43 42 41 40 39 38 37 37 38 40 41 41 40 41 44 44 43 41 39 37 37 36 33 28 23 19 18 16 14 14 14 12 10 9 8 8 8 8 9 9 9 10 10 9 10 12 15 18 18 17 16 17 18 19 17 16 16 15 15 14 14 16 16 15 15 15 16 17 17 22 32 33 33 36 38 41 45 46 42 41 45 46 47 49 50 52 52
43 44 44 43 42 41 40 39 38 37 38 39 41 41 40 43 45 44 43 41 40 39 38 36 31 25 20 19 16 15 17 15 12 12 10 8 8 9 8 9 10 10 10 10 9 10 11 15 18 19 18 17 17 18 19 18 17 16 15 14 14 15 17 17 16 15 15 16 17 19 23 29 33 37 39 36 38 44 48 43 39 40 46 51 54 55 57 57
40 42 43 44 44 44 42 41 40 38 37 37 40 42 42 42 44 45 44 43 42 41 40 38 34 26 21 19 17 17 19 15 14 16 13 11 9 8 9 9 10 11 10 9 9 9 10 14 18 18 17 17 18 19 19 18 17 17 16 15 15 17 17 17 16 15 16 17 18 19 21 29 37 40 39 38 39 44 47 46 45 45 48 53 55 57 59 59
36 39 41 43 45 45 44 43 41 40 38 36 38 41 42 42 43 45 45 45 43 42 41 39 36 28 22 20 18 18 19 16 17 18 15 13 11 8 9 9 10 11 10 9 9 9 10 13 16 16 16 16 17 17 18 19 18 16 16 16 17 17 17 17 16 16 17 18 19 20 25 33 39 40 40 42 43 45 48 48 50 50 50 52 52 54 55 54
31 35 37 40 44 45 45 45 43 42 39 36 36 39 41 41 43 42 43 44 45 44 42 40 39 31 24 21 20 21 20 15 16 19 17 15 12 9 9 9 10 10 10 9 9 9 10 12 13 13 15 16 16 17 18 20 19 17 16 18 18 17 17 17 17 17 18 20 23 26 32 38 40 42 44 46 47 46 49 50 51 53 53 52 51 50 49 49
27 29 32 36 40 43 45 47 46 45 42 37 35 38 39 40 40 40 41 44 45 45 43 41 40 34 26 23 24 25 20 15 14 17 19 17 14 10 9 9 9 10 10 9 9 9 9 10 11 12 13 14 15 17 19 20 20 17 15 18 18 17 17 17 17 18 19 22 27 32 39 45 45 45 49 54 54 48 50 54 53 55 55 54 53 51 50 50
25 26 28 31 36 41 45 48 49 48 46 41 37 37 38 38 39 40 42 44 44 45 44 43 40 35 28 26 29 25 18 16 15 15 17 18 17 12 9 9 10 10 10 10 10 9 9 9 10 11 11 14 15 17 19 19 19 16 14 17 17 17 17 18 18 18 21 22 27 35 42 47 44 44 52 61 64 57 51 55 56 55 55 55 54 52 53 53
24 25 26 28 31 36 44 50 52 51 50 46 41 38 38 39 39 38 40 42 43 44 44 44 42 36 30 31 32 25 18 18 16 15 16 18 19 16 11 10 10 11 11 10 10 9 9 9 10 11 11 13 14 15 18 18 18 16 15 16 16 17 17 17 18 18 22 23 28 36 37 39 41 43 48 56 70 73 64 59 57 56 56 56 55 54 56 56
24 25 26 26 27 31 39 48 56 58 55 52 47 40 38 38 38 37 39 41 43 43 44 44 43 36 31 33 32 23 19 19 17 16 16 17 20 19 14 11 11 11 11 11 10 10 10 10 10 10 11 13 13 15 17 18 18 16 16 15 16 18 17 16 17 19 23 26 31 32 27 29 40 47 48 54 68 77 75 69 63 60 58 56 54 54 56 57
24 24 25 26 26 27 33 44 56 61 58 57 53 45 38 35 37 38 39 41 41 41 42 43 43 39 36 33 27 22 21 21 20 17 17 17 19 20 17 13 12 12 12 11 11 10 10 10 9 10 12 13 14 14 16 18 18 18 17 16 16 18 19 17 16 18 22 26 28 26 22 25 37 49 51 56 67 73 72 69 66 65 61 56 53 55 57 56
25 24 25 27 26 25 29 39 51 57 58 60 58 50 39 34 36 39 38 38 38 41 41 42 42 40 38 32 24 23 23 23 23 20 18 18 18 21 18 14 12 12 11 11 12 11 11 11 10 11 13 13 14 14 16 18 19 20 18 18 19 19 21 20 17 18 21 23 22 21 23 26 36 50 51 54 69 76 70 64 64 66 64 60 59 60 62 58
28 25 26 28 28 26 26 32 45 52 55 61 63 56 42 35 36 37 38 36 35 38 39 38 37 36 38 31 24 24 23 23 24 21 20 19 19 21 19 16 13 12 13 12 12 11 11 11 10 12 14 13 14 14 17 18 21 22 19 21 22 19 21 21 18 18 20 22 20 19 22 27 38 51 51 49 64 78 76 68 64 64 62 59 58 60 63 62
31 28 28 29 29 29 25 30 45 54 55 60 64 60 46 38 37 36 38 36 33 37 38 35 32 33 37 31 23 24 24 24 25 23 22 21 21 22 21 18 15 14 15 14 13 12 11 11 10 12 14 14 14 15 17 18 22 25 21 23 24 20 21 21 18 18 19 22 22 20 23 30 42 56 58 50 56 76 83 76 69 62 58 54 53 55 57 60
36 32 32 32 31 30 27 29 43 55 61 64 65 63 51 40 37 37 36 34 32 33 34 35 36 34 32 27 24 23 23 25 25 24 24 23 23 23 22 22 18 16 16 16 15 13 12 11 11 13 15 16 15 15 17 17 21 24 21 21 24 22 22 21 20 19 18 20 24 25 25 28 38 52 63 57 55 71 79 78 76 67 61 59 55 53 53 56
42 39 37 36 34 32 29 28 37 50 60 67 67 63 54 43 39 38 35 33 32 32 32 36 40 36 27 22 24 23 22 25 25 24 24 24 24 23 23 23 21 19 18 17 16 14 13 12 12 15 16 17 17 15 17 16 18 22 21 21 23 22 22 22 21 19 18 22 27 28 26 29 38 48 59 63 60 69 74 71 73 70 65 65 60 57 58 60
46 44 42 40 35 32 30 27 37 49 57 68 69 64 57 46 41 40 36 35 35 33 31 33 36 32 26 24 24 23 23 24 25 26 25 25 25 23 21 21 21 20 18 18 17 15 14 14 14 15 16 17 17 15 15 16 18 22 23 24 24 22 22 22 21 21 23 28 31 30 30 34 44 51 57 67 68 73 75 65 64 67 66 65 61 61 64 67
47 45 43 41 37 33 31 30 42 55 62 71 72 66 59 48 45 43 38 37 34 28 25 28 30 27 27 28 26 23 24 25 26 28 28 27 26 24 22 20 20 19 19 19 18 16 15 17 16 14 16 17 17 15 14 16 17 19 21 22 22 21 22 20 20 23 27 34 36 33 35 35 42 50 54 66 75 77 76 67 63 64 63 62 58 58 62 66
43 42 40 39 36 34 33 34 46 61 71 76 73 68 58 49 48 47 42 37 31 25 23 24 27 26 27 29 27 24 26 27 27 28 30 30 28 26 24 21 20 20 20 18 18 17 16 18 17 15 15 16 16 16 16 17 16 17 20 21 22 21 21 20 20 24 28 36 39 36 38 39 44 52 55 62 70 75 77 73 74 68 59 59 57 56 59 61
44 44 41 39 38 37 36 37 48 68 78 77 74 69 59 50 50 49 46 41 33 27 26 23 25 27 26 27 27 25 27 29 27 28 32 31 29 28 25 22 20 20 20 19 19 19 19 18 17 16 16 16 16 17 17 17 17 18 20 22 23 23 22 22 22 28 32 36 40 40 42 45 49 53 60 66 63 70 78 76 83 78 61 60 62 60 61 63
51 49 46 43 42 42 39 38 53 74 85 83 76 69 59 52 52 52 49 46 38 29 28 27 27 29 27 26 27 25 25 27 27 29 32 32 30 28 26 23 22 22 21 21 20 21 21 19 17 16 16 16 17 17 17 17 18 20 21 22 25 23 22 23 28 36 37 36 40 43 45 49 53 54 62 72 67 71 81 77 79 78 65 65 65 62 64 65
57 55 53 47 44 48 45 48 72 88 92 92 81 66 58 56 58 57 51 50 45 33 28 28 28 29 28 28 29 25 23 24 25 29 31 33 31 28 26 24 23 23 23 22 22 22 21 17 16 17 17 17 17 17 17 18 18 20 22 23 24 23 22 27 35 38 37 41 42 41 50 58 59 60 63 69 68 68 79 79 75 74 68 66 65 62 63 64
60 61 60 51 48 57 54 61 88 100 97 97 82 63 60 64 65 60 55 55 51 39 32 29 28 29 26 28 31 27 23 23 23 28 31 33 32 29 27 25 24 23 24 25 24 23 21 17 16 17 18 18 17 17 17 18 18 19 22 23 24 24 28 36 39 38 45 57 52 42 54 66 63 61 60 66 72 68 72 76 72 71 70 68 67 64 61 62
66 70 66 55 53 65 69 75 94 101 98 95 79 63 64 70 68 62 58 59 52 40 35 32 29 27 24 27 31 28 26 24 23 27 31 33 33 30 27 26 25 24 25 26 26 24 21 18 16 17 19 18 17 17 16 17 18 19 22 23 24 23 28 38 39 40 50 56 51 41 48 64 66 60 57 66 78 73 69 72 71 72 73 71 69 65 62 62
72 76 71 62 64 76 85 92 100 100 95 91 78 66 66 70 71 65 57 55 50 40 35 34 31 27 23 25 29 29 28 25 24 27 30 33 33 30 28 28 26 25 25 26 27 24 19 18 19 18 19 19 18 17 15 16 17 20 23 24 25 24 24 32 36 40 44 42 46 45 43 58 66 60 57 65 75 73 68 69 70 70 70 69 68 67 66 66
77 77 72 73 79 85 91 96 99 96 91 89 80 69 68 70 71 66 56 51 46 38 35 35 32 28 24 26 29 28 27 26 24 25 28 31 32 30 29 27 27 27 26 27 28 24 18 19 20 19 20 20 18 16 15 15 16 19 23 24 26 25 23 27 31 36 39 42 53 52 46 57 66 60 60 67 71 71 68 66 65 66 65 65 67 67 67 67
84 81 73 80 88 91 94 96 95 92 88 87 79 71 72 72 68 66 62 57 48 38 35 34 33 31 26 26 28 27 27 27 25 26 27 29 30 29 29 27 28 30 28 28 29 26 20 18 19 19 20 19 16 15 14 14 16 18 22 25 26 26 25 27 30 33 38 48 53 51 47 56 66 65 64 69 69 66 64 63 62 64 66 66 67 67 66 68
89 88 81 83 91 95 96 93 92 92 89 85 78 73 75 73 70 69 64 57 51 42 37 34 33 31 26 25 28 29 29 28 26 27 27 28 29 27 27 27 29 31 30 30 30 27 22 18 19 19 19 18 15 15 14 13 15 17 20 25 25 27 29 31 34 34 43 53 48 44 46 50 59 64 63 60 57 54 57 62 63 65 67 67 68 68 68 69
90 94 91 89 95 97 91 89 90 91 88 83 77 78 79 72 73 76 62 52 53 48 38 36 35 31 27 26 28 30 31 29 29 28 27 28 28 27 27 27 29 32 32 32 30 27 25 22 20 19 18 18 16 16 15 13 15 16 20 25 28 32 32 32 35 37 46 53 44 42 47 45 47 55 55 52 49 50 56 61 63 66 67 67 68 70 69 69
89 94 95 94 96 92 85 86 90 88 85 82 79 79 79 72 74 79 68 58 61 54 42 38 35 31 28 27 29 31 31 31 30 28 28 28 27 26 26 26 28 33 35 35 33 30 28 25 22 19 19 18 17 17 16 15 15 15 20 25 30 36 34 32 40 44 47 47 41 43 47 45 46 50 51 52 52 55 59 61 63 65 67 69 69 70 69 68
88 90 91 90 89 84 81 85 90 88 83 80 81 80 78 76 76 78 75 70 69 61 48 39 33 32 29 27 31 32 32 32 30 28 28 27 28 26 26 27 28 34 38 37 35 33 30 28 25 21 20 18 17 19 18 17 16 15 19 23 29 35 36 38 45 45 42 39 39 44 47 50 54 53 53 54 55 60 63 64 65 66 67 70 71 70 70 70
85 87 87 83 80 77 77 84 91 89 81 78 83 83 80 80 79 79 79 76 71 64 53 42 35 32 30 29 32 32 33 34 30 29 28 27 28 26 25 26 26 33 40 38 35 34 32 32 28 24 22 19 18 19 18 18 17 15 17 20 26 33 37 41 43 40 38 40 44 47 51 58 60 56 56 55 56 63 66 68 71 71 70 69 70 70 71 72
77 80 80 76 73 73 74 85 92 88 82 81 82 81 79 80 82 81 79 76 73 66 54 43 36 34 33 33 34 33 33 34 31 29 29 27 27 25 24 24 25 30 36 37 37 34 31 31 28 24 22 19 19 18 18 18 16 15 16 17 20 28 35 39 41 42 43 46 51 55 61 66 62 57 58 56 57 64 68 70 72 72 69 68 69 69 69 69
72 72 72 71 71 73 77 88 92 86 85 84 78 75 78 82 84 82 78 77 74 66 55 44 37 37 37 36 36 35 33 33 32 29 28 27 26 26 24 23 24 27 31 37 40 35 33 33 29 24 22 19 19 19 17 18 17 17 17 16 17 25 34 37 38 44 46 46 55 65 69 69 66 62 60 59 62 68 69 68 67 67 68 68 67 67 68 69
70 70 70 70 71 73 79 87 89 86 89 86 76 74 80 85 85 80 76 74 69 65 61 50 39 38 39 37 37 36 33 33 32 30 30 28 27 26 24 23 23 25 29 34 37 36 36 36 30 26 24 21 20 20 19 17 18 18 15 15 19 26 34 38 40 46 49 53 65 72 70 69 69 67 64 63 67 68 67 66 65 65 66 66 66 66 69 71
70 71 73 73 71 73 78 85 88 88 91 89 80 78 84 89 85 78 76 72 65 64 67 59 47 41 38 36 38 36 34 35 33 31 31 29 28 26 24 23 23 24 28 31 34 36 35 33 31 28 25 24 22 23 24 21 18 18 15 14 20 26 30 34 40 43 46 59 73 74 71 69 67 66 64 61 61 61 62 63 63 63 63 64 65 67 69 73
69 72 77 77 74 74 79 86 89 89 92 92 86 83 87 89 84 77 76 71 65 67 71 64 53 45 38 35 37 36 34 35 34 32 30 28 29 29 25 24 24 24 27 29 33 38 37 34 33 30 26 26 26 25 27 26 21 19 19 16 19 27 30 29 34 39 46 63 73 71 71 69 62 60 60 57 56 57 58 59 60 63 64 63 64 66 70 73
69 73 79 79 78 80 82 87 91 92 93 92 88 86 87 87 83 78 75 70 67 70 73 66 56 49 43 37 36 35 33 34 32 31 31 29 29 30 27 25 25 26 27 29 33 38 37 34 37 36 31 29 29 26 25 26 24 22 22 20 20 26 30 30 33 37 48 65 73 71 70 64 58 56 55 55 56 55 55 56 58 62 65 64 62 63 67 71
69 76 81 79 80 82 83 88 93 94 93 89 86 85 85 86 85 78 73 71 70 69 68 65 59 52 47 42 38 35 32 32 30 29 30 28 29 30 28 26 26 27 28 29 32 36 36 37 41 42 35 30 31 28 26 26 25 23 23 22 21 24 27 33 37 37 43 56 65 67 65 59 57 56 55 56 57 54 54 56 57 60 63 64 62 63 64 66
72 78 79 78 79 80 81 87 90 90 90 87 84 83 84 86 85 77 71 70 71 70 68 65 61 55 51 47 42 36 32 30 30 30 29 28 29 30 28 27 26 27 28 29 31 36 41 40 40 40 37 35 32 30 28 28 27 26 23 22 23 24 24 31 38 38 39 46 53 56 57 57 58 59 58 60 60 57 57 58 59 62 64 65 66 65 64 65
73 74 76 78 81 81 83 87 88 88 88 86 84 84 85 88 86 78 73 71 70 71 71 68 63 57 53 48 44 39 35 32 30 29 29 29 29 29 28 27 27 27 29 30 32 38 41 39 38 39 40 37 34 32 31 30 30 29 27 24 24 24 24 30 39 40 39 44 48 49 53 58 58 59 60 62 62 61 60 60 63 66 68 68 69 68 67 67
68 71 76 79 80 82 87 89 88 88 88 85 87 89 90 90 87 80 76 75 73 73 73 70 63 57 54 50 47 45 41 38 32 27 27 28 26 27 29 28 27 27 28 30 34 37 38 40 42 41 40 37 36 36 33 31 31 33 33 29 25 26 26 27 32 33 34 40 41 41 51 59 57 56 61 63 64 64 62 61 63 66 69 69 69 70 68 66
70 72 75 76 79 83 87 87 87 89 90 91 93 95 95 90 82 76 77 77 74 71 73 72 65 58 55 53 53 48 41 41 35 26 25 27 25 26 29 29 29 28 27 30 34 36 39 43 43 43 47 47 43 42 40 36 33 34 35 32 28 28 28 27 28 27 28 34 36 37 50 61 56 53 58 61 63 64 63 63 64 66 69 70 70 69 68 65
77 75 74 77 79 82 84 84 87 91 94 95 95 95 95 89 77 73 75 75 73 71 72 71 65 60 58 59 61 54 44 43 41 30 25 26 25 26 28 29 30 28 28 31 34 38 44 46 42 43 48 47 44 46 44 38 34 33 33 34 33 32 31 33 33 30 30 35 39 41 50 58 55 50 50 55 59 63 63 64 66 67 69 70 70 69 68 66
77 75 77 80 80 82 85 87 89 92 92 93 93 93 90 85 80 77 74 75 78 77 75 71 65 63 63 64 66 59 49 46 45 37 29 26 25 27 29 30 29 29 30 32 34 40 44 43 43 46 46 45 46 47 45 41 37 38 37 34 35 36 35 33 33 34 36 36 40 46 50 52 51 47 46 50 54 58 61 62 65 67 69 69 69 68 66 63
74 75 77 80 81 83 85 86 87 90 90 88 89 90 88 84 83 80 75 78 82 80 76 73 68 65 65 67 68 63 54 50 48 43 37 33 30 29 29 30 29 29 31 33 34 40 43 43 46 50 51 54 54 52 50 50 48 48 48 44 41 40 35 32 35 39 38 33 37 47 50 48 48 47 47 49 50 52 56 59 63 67 68 69 68 66 63 61
73 76 79 81 84 83 81 82 85 88 88 85 86 88 87 84 82 79 77 81 84 81 78 76 72 65 64 68 70 65 60 58 53 45 39 37 36 33 31 32 31 30 32 32 33 39 43 45 50 55 57 60 61 58 55 54 54 54 54 53 51 46 40 39 45 46 42 40 43 48 49 49 49 49 50 52 54 56 59 63 67 69 69 70 69 66 64 63
76 80 82 82 83 83 82 83 84 85 85 85 86 86 85 82 81 81 80 81 84 84 81 77 73 68 65 67 70 65 63 63 57 47 40 39 40 38 35 37 35 32 33 32 32 35 40 47 56 61 62 64 65 64 59 54 56 57 56 55 54 50 47 49 51 49 48 49 50 49 51 53 52 52 54 55 57 60 63 68 72 73 73 73 70 67 67 67
81 83 85 85 82 82 83 83 82 82 84 87 88 86 84 82 80 83 83 80 81 84 81 75 71 69 68 69 70 67 66 66 60 50 43 43 45 42 39 42 41 34 33 33 32 35 42 52 60 62 64 68 69 67 64 57 56 57 58 59 56 51 50 50 49 49 50 51 51 51 53 53 50 50 54 55 55 57 60 67 73 75 74 74 72 69 67 67
85 87 89 89 85 84 85 83 81 80 80 83 84 82 83 81 78 81 83 79 75 75 76 74 70 71 73 73 70 65 63 64 60 52 47 48 49 47 45 48 47 40 35 35 37 43 47 52 60 63 65 70 72 71 69 61 55 55 57 58 58 55 53 52 51 51 50 50 51 51 49 49 49 48 50 52 52 53 55 61 69 75 76 76 74 70 67 66